Showing default

PALAPA B1, 14134

Orbit data source: Space-Track

PALAPA B1, 14134 is a payload satellite owned by Perumtel (ID) in GEO that was launched on Sat, 18 Jun 1983 UTC via an SPACE SHUTTLE launch vehicle from the Air Force Eastern Test Range (AFETR). Payload-class satellites include a variety of spacecraft equipped with specific instruments for various scientific and technological missions. These include communications satellites like Starlink; space stations such as the ISS; scientific satellites like the Hubble; Earth observation satellites from companies like Planet Labs, Umbra, and HawkEye 360; GPS; miniature CubeSats for education and research; and military/defense satellites.

Not visible in the next 10 days
Identifier
14134, 1983-059C
Orbit
GEO
Country
Flag of IDID / INDO
Related business
Manufacturer
Hughes
Mission
Non-operational spacecraft
Bus & Motor
HS-376, TE-M-700-5
Mass
~1,202 kg wet, ~500 kg dry
Launch date (UTC)
1983-06-18 (43 years ago)
Launch vehicle
SPACE SHUTTLE
Launch site
Air Force Eastern Test Range (AFETR)
Object type
Payload
Rocket body
Debris
Shape & HBR
Unknown
Radar Cross Section
Large (>1 m²)

Expand to show TLE details & history
Last TLE update: 13 hours ago

TLE from 13 hours ago
0 PALAPA B1
1 14134U 83059C   26119.77776323  .00000081  00000-0  00000-0 0  9998
2 14134  11.6493 329.8284 0002517  82.6665 104.8233  1.00182362120303
Epoch: 2026-04-29T18:39Z
TLE epoch observation values (Epoch: 2026-04-29T18:39:58.743Z)
Latitude
-1.53527°
Longitude
19.4821°
Altitude
35,814.202 km
Speed
3.074 km/s
True Right ascension
10h 28m 50s
True Declination
-1° 32' 01"
Sunlit
Object was in daylight at epoch
Visualization orbit readout
Latitude
Unknown
Longitude
Unknown
Altitude
Unknown
Speed
Unknown
Apparent Right ascension
Unknown
Apparent Declination
Unknown
Sunlit
N/A
Visualization observer readout
Local Sidereal Time
14:44:42
Azimuth
Unknown
Elevation
Unknown
Doppler factor
Unknown
Orbital elements
Apogee altitude
35,823.307 km
Perigee altitude
35,802.069 km
Semi-major axis
42,190.825 km
Eccentricity
0.00025
Inclination
11.6493°
RAAN
329.8284°
Arg. of periapsis
82.6665°
True anomaly
104.85118°
Mean anomaly
104.8233°
Eccentric anomaly
104.83724°
Mean motion
0.25045 °/min
Orbital period
1,437.43 mins
BSTAR
0
Loading maneuver chart data...
Computing Atmospheric mass density...
Loading historical data...
Loading historical data...
Loading historical data...
Loading historical data...
Loading historical data...
Loading historical data...
Loading historical data...

Documentation

Showing up to 5 results
|